Location: Sternwarte auf dem Internationalen Platz Vogelsang IP
(50.5721°N, 6.4398°E)
Time: 07:08:04
(UTC+01:00)

NANOSAT C BR1 - Visible Passes

Search period start: 19 January 2026 00:00
Search period end: 29 January 2026 00:00
Orbit: 485 x 491 km, 98.1° (Epoch: 18 January)

Date Brightness Start Highest point End Pass type
(mag) Time Alt. Az. Time Alt. Az. Time Alt. Az.
19 Jan ? 07:30:00 10° NNE 07:33:32 50° E 07:37:03 10° S visible
19 Jan ? 18:10:43 10° SSE 18:14:13 50° ENE 18:17:44 10° N visible
19 Jan ? 19:45:51 10° SW 19:47:56 15° W 19:50:04 10° NW visible
20 Jan ? 07:06:53 10° NE 07:10:03 28° E 07:13:12 10° SSE visible
20 Jan ? 17:47:48 10° SE 17:50:55 28° ENE 17:54:04 10° N visible
20 Jan ? 19:21:19 10° SSW 19:24:22 26° W 19:27:26 10° NW visible
21 Jan ? 06:44:09 10° NE 06:46:27 16° E 06:48:44 10° SE visible
21 Jan ? 18:57:20 10° S 19:00:49 47° W 19:04:19 10° NNW visible
22 Jan ? 18:33:43 10° SSE 18:37:19 89° WSW 18:40:57 10° NNW visible
23 Jan ? 07:29:42 10° NNE 07:33:14 48° E 07:36:45 10° S visible
23 Jan ? 18:10:24 10° SE 18:13:52 48° ENE 18:17:22 10° N visible
23 Jan ? 19:45:21 10° SW 19:47:34 15° W 19:49:48 10° NW visible
24 Jan ? 07:06:31 10° NE 07:09:37 26° E 07:12:43 10° SSE visible
24 Jan ? 17:47:23 10° SE 17:50:28 27° ENE 17:53:34 10° N visible
24 Jan ? 19:20:46 10° SSW 19:23:51 27° W 19:26:59 10° NW visible
25 Jan ? 06:43:42 10° NE 06:45:54 15° E 06:48:05 10° SE visible
25 Jan ? 18:56:42 10° S 19:00:12 49° W 19:03:45 10° NNW visible
26 Jan ? 18:33:00 10° SSE 18:36:36 86° ENE 18:40:14 10° NNW visible
27 Jan ? 07:28:57 10° NNE 07:32:28 45° E 07:35:56 10° S visible
27 Jan ? 18:09:35 10° SE 18:13:02 45° ENE 18:16:31 10° N visible
27 Jan ? 19:44:22 10° SW 19:46:43 16° W 19:49:04 10° NW visible
28 Jan ? 07:05:40 10° NE 07:08:42 25° E 07:11:44 10° SSE visible
28 Jan ? 19:19:43 10° SSW 19:22:53 29° W 19:26:05 10° NW visible
